Track COSMOS 2425 (GLONASS) now! COSMOS 2425 (GLONASS) is classified as:
1 29670U 06062A 21107.25426360 .00000036 00000-0 00000-0 0 9996 2 29670 64.8622 257.5143 0024381 348.5729 9.5319 2.13113755111364